TimeEDT,TemperatureF,Dew PointF,Humidity,Sea Level PressureIn,VisibilityMPH,Wind Direction,Wind SpeedMPH,Gust SpeedMPH,PrecipitationIn,Events,Conditions,WindDirDegrees,DateUTC
12:52 AM,62.1,53.1,72,29.74,10.0,North,10.4,19.6,N/A,,Overcast,360,2012-10-28 04:52:00
1:52 AM,60.1,52.0,75,29.73,10.0,North,9.2,-,N/A,,Overcast,350,2012-10-28 05:52:00
2:52 AM,60.1,51.1,72,29.72,10.0,North,11.5,23.0,N/A,,Overcast,350,2012-10-28 06:52:00
3:52 AM,59.0,50.0,72,29.70,10.0,North,13.8,-,N/A,,Overcast,360,2012-10-28 07:52:00
4:52 AM,57.9,48.9,72,29.70,10.0,North,13.8,-,N/A,,Overcast,10,2012-10-28 08:52:00
5:52 AM,57.9,48.0,70,29.71,10.0,North,11.5,-,N/A,,Overcast,360,2012-10-28 09:52:00
6:52 AM,57.0,48.0,72,29.70,10.0,North,11.5,-,N/A,,Overcast,360,2012-10-28 10:52:00
7:52 AM,55.9,48.0,75,29.70,10.0,NNW,6.9,-,N/A,,Mostly Cloudy,340,2012-10-28 11:52:00
8:52 AM,57.0,46.9,69,29.71,10.0,NNW,10.4,19.6,N/A,,Mostly Cloudy,340,2012-10-28 12:52:00
9:52 AM,57.9,48.0,70,29.71,10.0,NNW,6.9,-,N/A,,Mostly Cloudy,340,2012-10-28 13:52:00
10:52 AM,61.0,48.0,62,29.70,10.0,North,13.8,-,N/A,,Mostly Cloudy,350,2012-10-28 14:52:00
11:52 AM,64.0,48.0,56,29.69,10.0,North,13.8,20.7,N/A,,Mostly Cloudy,360,2012-10-28 15:52:00
12:52 PM,66.9,48.0,51,29.66,10.0,North,11.5,-,N/A,,Mostly Cloudy,10,2012-10-28 16:52:00
1:52 PM,66.9,48.0,51,29.65,10.0,North,11.5,-,N/A,,Mostly Cloudy,360,2012-10-28 17:52:00
2:52 PM,66.9,46.9,49,29.63,10.0,North,11.5,-,N/A,,Mostly Cloudy,350,2012-10-28 18:52:00
3:52 PM,69.1,48.0,47,29.63,10.0,North,10.4,19.6,N/A,,Mostly Cloudy,350,2012-10-28 19:52:00
4:52 PM,69.1,46.9,45,29.63,10.0,North,11.5,16.1,N/A,,Mostly Cloudy,360,2012-10-28 20:52:00
5:52 PM,66.0,46.0,48,29.63,10.0,North,6.9,-,N/A,,Overcast,350,2012-10-28 21:52:00
6:52 PM,60.1,44.1,55,29.65,10.0,NNW,15.0,23.0,N/A,,Overcast,330,2012-10-28 22:52:00
7:52 PM,57.9,43.0,58,29.68,10.0,NW,9.2,-,N/A,,Overcast,320,2012-10-28 23:52:00
8:52 PM,55.9,42.1,60,29.69,10.0,NNW,9.2,17.3,N/A,,Overcast,330,2012-10-29 00:52:00
9:52 PM,53.1,37.9,57,29.70,10.0,NNW,16.1,29.9,N/A,,Overcast,340,2012-10-29 01:52:00
10:52 PM,52.0,37.0,57,29.69,10.0,NNW,17.3,24.2,N/A,,Overcast,340,2012-10-29 02:52:00
11:52 PM,51.1,34.0,52,29.69,10.0,NNW,16.1,23.0,N/A,,Overcast,340,2012-10-29 03:52:00